Weather History for KFHR - November, 2013

Change the Weather History Date:

Tuesday, November 19, 2013

  Actual Average Record
Temperature  
Mean Temperature 40 °F -  
Max Temperature 45 °F 46 °F 57 °F (2008)
Min Temperature 36 °F 38 °F 26 °F (2011)
Degree Days  
Heating Degree Days 24    
Moisture  
Dew Point 31 °F    
Average Humidity 71    
Maximum Humidity 100    
Minimum Humidity 35    
Precipitation  
Precipitation 0.01 in - - ()
Sea Level Pressure  
Sea Level Pressure 29.79 in    
Wind  
Wind Speed 2 mph (NW)    
Max Wind Speed 6 mph    
Max Gust Speed -    
Visibility 10 miles    
Events Rain    
Averages and records for this station are not official NWS values.
T = Trace of Precipitation, MM = Missing Value Source: NWS Daily Summary

Daily Weather History Graph

Daily Weather History Graph

Search for Another Location

Airport or City:

Trip Planner

Search our weather history database for the weather conditions in past years. The results will help you decide how hot, cold, wet, or windy it might be!

Date:

Astronomy

Nov. 19, 2013 Rise Set
Actual Time 7:26 AM PST 4:28 PM PST
Civil Twilight 6:51 AM PST 5:02 PM PST
Nautical Twilight 6:13 AM PST 5:41 PM PST
Astronomical Twilight 5:36 AM PST 6:18 PM PST
Moon 6:22 PM PST (11/19) 9:11 AM PST (11/19)
Length of Visible Light 10h 10m
Length of Day
9h 01m
Waning Gibbous, 95% of the Moon is Illuminated
Nov 19
Waning Gibbous
Nov 25
Last Quarter
Dec 2
New
Dec 9
First Quarter
Dec 17
Full

Hourly Weather History & Observations

Time (PST) Temp. Windchill Dew Point Humidity Pressure Visibility Wind Dir Wind Speed Gust Speed Precip Events Conditions
12:40 AM 44.6 °F - 42.8 °F 93% 29.59 in 8.0 mi Calm Calm - 0.01 in Rain Light Rain
12:53 AM 44.1 °F 42.5 °F 42.1 °F 93% 29.59 in 10.0 mi Variable 3.5 mph - 0.01 in   Overcast
12:59 AM 44.6 °F 43.1 °F 42.8 °F 93% 29.59 in 9.0 mi Variable 3.5 mph - N/A   Overcast
1:17 AM 42.8 °F 41.1 °F 41.0 °F 93% 29.60 in 8.0 mi West 3.5 mph - N/A   Overcast
1:53 AM 43.0 °F - 41.0 °F 93% 29.62 in 10.0 mi Calm Calm - N/A   Overcast
2:02 AM 42.8 °F - 41.0 °F 93% 29.62 in 10.0 mi Calm Calm - N/A   Overcast
2:19 AM 42.8 °F - 42.8 °F 100% 29.62 in 10.0 mi Calm Calm - N/A   Overcast
2:31 AM 42.8 °F - 42.8 °F 100% 29.63 in 10.0 mi Calm Calm - N/A   Overcast
2:53 AM 43.0 °F - 42.1 °F 97% 29.63 in 10.0 mi Calm Calm - N/A   Overcast
3:01 AM 42.8 °F - 42.8 °F 100% 29.63 in 10.0 mi Calm Calm - N/A   Overcast
3:53 AM 43.0 °F 41.3 °F 42.1 °F 97% 29.65 in 10.0 mi NNW 3.5 mph - N/A   Overcast
4:26 AM 42.8 °F - 41.0 °F 93% 29.66 in 10.0 mi Calm Calm - N/A   Overcast
4:53 AM 43.0 °F 41.3 °F 41.0 °F 93% 29.68 in 10.0 mi Variable 3.5 mph - N/A   Mostly Cloudy
5:53 AM 41.0 °F 39.0 °F 37.0 °F 86% 29.70 in 10.0 mi SW 3.5 mph - N/A   Scattered Clouds
6:53 AM 39.9 °F 35.8 °F 36.0 °F 86% 29.74 in 10.0 mi SW 5.8 mph - N/A   Clear
7:53 AM 39.0 °F - 35.1 °F 86% 29.77 in 10.0 mi Calm Calm - N/A   Clear
8:53 AM 43.0 °F 41.3 °F 37.9 °F 82% 29.81 in 10.0 mi NNW 3.5 mph - N/A   Clear
9:53 AM 44.1 °F 40.8 °F 36.0 °F 73% 29.83 in 10.0 mi NNW 5.8 mph - N/A   Partly Cloudy
10:53 AM 45.0 °F 42.6 °F 30.0 °F 56% 29.85 in 10.0 mi Variable 4.6 mph - N/A   Partly Cloudy
11:53 AM 45.0 °F 42.6 °F 21.0 °F 39% 29.86 in 10.0 mi Variable 4.6 mph - N/A   Clear
12:53 PM 43.0 °F 39.5 °F 18.0 °F 37% 29.87 in 10.0 mi NNW 5.8 mph - N/A   Partly Cloudy
1:53 PM 44.1 °F 42.5 °F 18.0 °F 35% 29.87 in 10.0 mi Variable 3.5 mph - N/A   Clear
2:53 PM 43.0 °F 39.5 °F 17.1 °F 35% 29.88 in 10.0 mi North 5.8 mph - N/A   Overcast
3:53 PM 42.1 °F - 19.9 °F 41% 29.90 in 10.0 mi Calm Calm - N/A   Overcast
4:53 PM 41.0 °F 39.0 °F 19.0 °F 41% 29.92 in 10.0 mi North 3.5 mph - N/A   Overcast
5:53 PM 39.9 °F 37.8 °F 19.9 °F 45% 29.94 in 10.0 mi NNW 3.5 mph - N/A   Overcast
6:53 PM 39.0 °F - 21.0 °F 49% 29.96 in 10.0 mi Calm Calm - N/A   Overcast
7:53 PM 37.9 °F - 14.0 °F 38% 29.98 in 10.0 mi Calm Calm - N/A   Mostly Cloudy
8:53 PM 37.0 °F 34.5 °F 15.1 °F 41% 30.00 in 10.0 mi Variable 3.5 mph - N/A   Scattered Clouds
9:53 PM 36.0 °F 31.1 °F 19.0 °F 50% 30.04 in 10.0 mi Variable 5.8 mph - N/A   Clear
10:53 PM 36.0 °F 33.3 °F 21.0 °F 55% 30.07 in 10.0 mi Variable 3.5 mph - N/A   Clear
11:53 PM 37.0 °F 33.3 °F 26.1 °F 65% 30.09 in 10.0 mi Variable 4.6 mph - N/A   Clear